San Bernardino, CA

2:12 AM PST on December 10, 2019 (GMT -0800)
San Bernardino International

Weather History for KSBD - May, 2019

Change the Weather History Date:

Thursday, May 30, 2019

  Actual Average Record
Temperature  
Mean Temperature 72 °F -  
Max Temperature 87 °F 81 °F 93 °F (2014)
Min Temperature 56 °F 54 °F 48 °F (2011)
Cooling Degree Days 6    
Growing Degree Days 22 (Base 50)    
Moisture  
Dew Point 50 °F    
Average Humidity 58    
Maximum Humidity 78    
Minimum Humidity 20    
Precipitation  
Precipitation 0.00 in - - ()
Sea Level Pressure  
Sea Level Pressure 29.89 in    
Wind  
Wind Speed 4 mph (WSW)    
Max Wind Speed 13 mph    
Max Gust Speed -    
Visibility 9 miles    
Events      
Averages and records for this station are not official NWS values.
T = Trace of Precipitation, MM = Missing Value Source: NWS Daily Summary

Daily Weather History Graph

Daily Weather History Graph

Search for Another Location

Airport or City:

Astronomy

May. 30, 2019 Rise Set
Actual Time 5:39 AM PDT 7:54 PM PDT
Civil Twilight 5:10 AM PDT 8:22 PM PDT
Nautical Twilight 4:35 AM PDT 8:57 PM PDT
Astronomical Twilight 3:57 AM PDT 9:35 PM PDT
Moon 3:32 AM PDT (5/30) 4:18 PM PDT (5/30)
Length of Visible Light 15h 12m
Length of Day
14h 14m
Waning Crescent, 14% of the Moon is Illuminated
May 30
Waning Crescent
Jun 3
New
Jun 9
First Quarter
Jun 17
Full
Jun 25
Last Quarter

Hourly Weather History & Observations

Time (PDT) Temp. Dew Point Humidity Pressure Visibility Wind Dir Wind Speed Gust Speed Precip Events Conditions
12:00 AM 64.8 °F 50.4 °F 60% 29.90 in 10.0 mi West 6.9 mph - N/A   Clear
12:20 AM 62.8 °F 50.9 °F 65% 29.90 in 10.0 mi WSW 3.5 mph - N/A   Clear
12:40 AM 63.5 °F 50.5 °F 63% 29.89 in 10.0 mi WSW 3.5 mph - N/A   Clear
1:00 AM 63.5 °F 51.1 °F 64% 29.89 in 10.0 mi SW 3.5 mph - N/A   Clear
1:20 AM 63.5 °F 50.9 °F 63% 29.89 in 10.0 mi Calm Calm - N/A   Clear
1:40 AM 62.2 °F 50.9 °F 66% 29.90 in 10.0 mi Calm Calm - N/A   Clear
2:00 AM 60.4 °F 50.9 °F 71% 29.89 in 10.0 mi WSW 5.8 mph - N/A   Clear
2:20 AM 61.0 °F 51.1 °F 70% 29.89 in 10.0 mi Calm Calm - N/A   Clear
2:40 AM 61.0 °F 50.9 °F 69% 29.89 in 10.0 mi Calm Calm - N/A   Clear
3:00 AM 60.4 °F 51.1 °F 71% 29.89 in 10.0 mi Calm Calm - N/A   Clear
3:20 AM 60.4 °F 51.1 °F 71% 29.89 in 10.0 mi Calm Calm - N/A   Clear
3:40 AM 59.9 °F 50.9 °F 72% 29.88 in 10.0 mi Calm Calm - N/A   Clear
4:00 AM 56.8 °F 49.3 °F 76% 29.88 in 10.0 mi Calm Calm - N/A   Clear
4:20 AM 57.7 °F 50.9 °F 78% 29.87 in 10.0 mi Calm Calm - N/A   Clear
4:40 AM 57.7 °F 49.5 °F 74% 29.87 in 10.0 mi East 3.5 mph - N/A   Clear
5:00 AM 58.1 °F 49.6 °F 73% 29.87 in 10.0 mi Calm Calm - N/A   Clear
5:20 AM 57.9 °F 49.3 °F 73% 29.88 in 10.0 mi Calm Calm - N/A   Clear
5:40 AM 57.2 °F 49.6 °F 76% 29.89 in 10.0 mi Calm Calm - N/A   Clear
7:00 AM 59.0 °F 50.0 °F 72% 29.91 in 6.0 mi Calm Calm - N/A   Haze
7:45 AM 62.6 °F 50.0 °F 63% 29.92 in 6.0 mi Calm Calm - N/A   Haze
8:45 AM 64.4 °F 51.8 °F 64% 29.92 in 6.0 mi Calm Calm - N/A   Haze
9:46 AM 69.8 °F 50.0 °F 49% 29.92 in 6.0 mi Calm Calm - N/A   Haze
10:50 AM 73.4 °F 50.0 °F 44% 29.91 in 6.0 mi Calm Calm - N/A   Haze
11:47 AM 78.8 °F 44.6 °F 30% 29.91 in 6.0 mi SW 5.8 mph - N/A   Haze
12:49 PM 82.4 °F 46.4 °F 28% 29.89 in 6.0 mi West 9.2 mph - N/A   Haze
1:50 PM 86.0 °F 41.0 °F 20% 29.87 in 6.0 mi West 8.1 mph - N/A   Haze
2:54 PM 87.8 °F 44.6 °F 22% 29.85 in 6.0 mi WSW 8.1 mph - N/A   Haze
3:55 PM 87.8 °F 42.8 °F 21% 29.84 in 6.0 mi WSW 8.1 mph - N/A   Haze
4:55 PM 86.0 °F 41.0 °F 20% 29.84 in 6.0 mi WSW 11.5 mph - N/A   Haze
5:47 PM 84.2 °F 44.6 °F 25% 29.84 in 7.0 mi WSW 12.7 mph - N/A   Clear
6:48 PM 80.6 °F 48.2 °F 32% 29.84 in 10.0 mi WSW 8.1 mph - N/A   Clear
7:48 PM 75.2 °F 51.8 °F 44% 29.87 in 10.0 mi SW 10.4 mph - N/A   Clear
8:50 PM 71.6 °F 51.8 °F 50% 29.89 in 10.0 mi SW 8.1 mph - N/A   Clear
9:40 PM 68.4 °F 52.9 °F 58% 29.91 in 10.0 mi West 5.8 mph - N/A   Clear
10:00 PM 67.6 °F 53.4 °F 60% 29.91 in 10.0 mi WSW 6.9 mph - N/A   Clear
10:20 PM 66.4 °F 53.6 °F 63% 29.92 in 10.0 mi WSW 8.1 mph - N/A   Clear
10:21 PM 66.4 °F 53.6 °F 63% 29.92 in 10.0 mi WSW 6.9 mph - N/A   Clear
10:40 PM 65.3 °F 53.6 °F 66% 29.92 in 10.0 mi WSW 5.8 mph - N/A   Clear
11:00 PM 64.6 °F 53.6 °F 68% 29.92 in 10.0 mi WSW 6.9 mph - N/A   Clear
11:20 PM 64.0 °F 53.6 °F 69% 29.92 in 10.0 mi WSW 4.6 mph - N/A   Clear
11:21 PM 63.9 °F 53.6 °F 69% 29.92 in 10.0 mi WSW 4.6 mph - N/A   Clear
11:40 PM 62.8 °F 53.4 °F 71% 29.93 in 10.0 mi West 4.6 mph - N/A   Clear